Home   Weather   Kielce   Past weeks

Flag for Poland Past Weather in Kielce, Poland — Yesterday and Last 2 Weeks

Now
44 °F

Passing clouds.


Feels Like: 42 °F
Forecast: 39 / 57 °F
Wind: 3 mph from North

Location: Kielce

Current Time: Apr 30, 2017 at 9:21:09 am

Latest Report: Apr 30, 2017 at 8:00 am


Visibility: 10 mi

Pressure: 30.16 "Hg

Humidity: 81%

Dew Point: 38 °F

Location of KielceLocation

Past Weather in Kielce — Graph

°F

Kielce Temperature Yesterday

Maximum temperature yesterday: 51 °F (at 6:00 pm)
Minimum temperature yesterday: 38 °F (at 5:00 am)
Average temperature yesterday: 43 °F

High & Low Weather Summary for the Past Weeks

 TemperatureHumidityPressure
High64 °F (Apr 25, 2:00 pm)97% (Apr 30, 7:00 am)30.44 "Hg (Apr 30, 7:00 am)
Low24 °F (Apr 21, 5:00 am)39% (Apr 25, 1:00 pm)29.68 "Hg (Apr 25, 2:00 pm)
Average40 °F76%30.00 "Hg
* Reported Apr 15 8:00 am — Apr 30 8:00 am, Kielce, Weather by CustomWeather, © 2017

Note: Actual official high and low records may vary slightly from our data, if they occured in-between our weather recording intervals... More about our weather records

Advertising

Kielce Weather History for the Previous 24 Hours

Scroll right to see more
 ConditionsComfort  
Time TempWeatherWind HumidityBarometerVisibility
8:00 am
Sun, Apr 30
44 °FPassing clouds.3 mph81%30.16 "Hg10 mi
7:00 am40 °FFog.2 mph97%30.16 "Hg2 mi
6:00 am34 °FFog.1 mph96%30.17 "Hg1 mi
5:00 am32 °FFog.1 mph95%30.15 "Hg0 mi
4:00 am32 °FFog.1 mph95%30.16 "Hg0 mi
3:00 am32 °FFog.1 mph93%30.14 "Hg0 mi
2:00 am36 °FFog.No wind92%30.11 "Hg1 mi
1:00 am38 °FFog.1 mph90%30.10 "Hg3 mi
12:00 am40 °FFog.2 mph85%30.10 "Hg6 mi
11:00 pm
Sat, Apr 29
42 °FFog.3 mph82%30.09 "Hg5 mi
10:00 pm41 °FFog.1 mph90%30.09 "Hg2 mi
9:00 pm44 °FOvercast.1 mph89%30.08 "Hg8 mi
8:00 pm47 °FPassing clouds.1 mph79%30.05 "Hg9 mi
7:00 pm49 °FOvercast.1 mph67%30.04 "Hg28 mi
6:00 pm51 °FOvercast.1 mph51%30.03 "Hg25 mi
5:00 pm50 °FPartly sunny.1 mph54%30.03 "Hg22 mi
4:00 pm50 °FPartly sunny.1 mph56%30.03 "Hg19 mi
3:00 pm49 °FPartly sunny.2 mph61%30.03 "Hg14 mi
2:00 pm48 °FOvercast.2 mph62%30.03 "Hg19 mi
1:00 pm46 °FOvercast.3 mph70%30.04 "Hg22 mi
12:00 pm44 °FOvercast.5 mph74%30.04 "Hg22 mi
11:00 am44 °FOvercast.3 mph80%30.02 "Hg14 mi
10:00 am41 °FOvercast.2 mph89%30.01 "Hg12 mi
9:00 am40 °FLow clouds.3 mph90%29.98 "Hg13 mi
Weather by CustomWeather, © 2017

See weather overviewHow to use our weather pages